Location: Davayat
(45.9471°N, 3.1105°E)
Time: 13:32:43
(UTC+00:00)

OE (NEXTSAT) - Pass Details

Date: 01 December 2020
Orbit: 428 x 435 km, 46.0° (Epoch: 26 January)

Event Time Altitude Azimuth Distance (km) Brightness Sun altitude
Rises 16:47:42 0° 268° (W) 2,398 9.6 -7.5°
Reaches altitude 10° 16:49:50 10° 269° (W) 1,529 8.4 -7.9°
Maximum altitude 16:53:17 87° 356° (N) 435 4.3 -8.4°
Enters shadow 16:56:36 11° 88° (E) 1,470 6.4 -9.0°
